| time (UTC) | temp F | wind direction | speed MPH | gust MPH | rain 1hr in | rain 24hr in | rain mn in | humidity % | barometer mb |
| 20260502190004 | 61 | 269 | 4.0 | 10.0 | 0.00 | 0.00 | 0.00 | 42 | |
| 20260502185403 | 61 | 270 | 5.0 | 11.0 | 0.00 | 0.00 | 0.00 | 42 | |
| 20260502184503 | 62 | 276 | 6.0 | 12.0 | 0.00 | 0.00 | 0.00 | 41 | |
| 20260502183603 | 62 | 280 | 5.0 | 14.0 | 0.00 | 0.00 | 0.00 | 41 | |
| 20260502182703 | 63 | 274 | 5.0 | 14.0 | 0.00 | 0.00 | 0.00 | 40 | |
| 20260502181803 | 63 | 262 | 6.0 | 13.0 | 0.00 | 0.00 | 0.00 | 39 | |
| 20260502181118 | 63 | 267 | 7.0 | 14.0 | 0.00 | 0.00 | 0.00 | 39 | |
| 20260502163603 | 67 | 265 | 7.0 | 13.0 | 0.00 | 0.00 | 0.00 | 32 | |
| 20260502162703 | 67 | 261 | 8.0 | 16.0 | 0.00 | 0.00 | 0.00 | 32 | |
| 20260502161803 | 68 | 273 | 9.0 | 24.0 | 0.00 | 0.00 | 0.00 | 33 | |
| 20260502161117 | 68 | 271 | 8.0 | 24.0 | 0.00 | 0.00 | 0.00 | 31 | |
| 20260502152017 | 70 | 265 | 9.0 | 20.0 | 0.00 | 0.00 | 0.00 | 31 | |
| 20260502150903 | 69 | 268 | 10.0 | 25.0 | 0.00 | 0.00 | 0.00 | 32 | |
| 20260502122703 | 68 | 269 | 12.0 | 28.0 | 0.00 | 0.00 | 0.00 | 35 | |
| 20260502122016 | 68 | 271 | 14.0 | 30.0 | 0.00 | 0.00 | 0.00 | 37 | |
| 20260502120903 | 68 | 265 | 11.0 | 26.0 | 0.00 | 0.00 | 0.00 | 38 | |
| 20260502115403 | 68 | 266 | 12.0 | 25.0 | 0.00 | 0.00 | 0.00 | 39 | |
| 20260502114503 | 68 | 272 | 7.0 | 16.0 | 0.00 | 0.00 | 0.00 | 39 | |
| 20260502113603 | 68 | 263 | 10.0 | 25.0 | 0.00 | 0.00 | 0.00 | 38 | |
| 20260502112703 | 68 | 259 | 12.0 | 25.0 | 0.00 | 0.00 | 0.00 | 41 | |
| 20260502111803 | 68 | 265 | 11.0 | 25.0 | 0.00 | 0.00 | 0.00 | 39 | |
| 20260502110903 | 68 | 262 | 9.0 | 19.0 | 0.00 | 0.00 | 0.00 | 38 | |
| 20260502110003 | 68 | 267 | 9.0 | 17.0 | 0.00 | 0.00 | 0.00 | 39 | |
| 20260502105403 | 68 | 269 | 12.0 | 27.0 | 0.00 | 0.00 | 0.00 | 40 | |
| 20260502104503 | 67 | 267 | 10.0 | 20.0 | 0.00 | 0.00 | 0.00 | 39 | |
| 20260502103603 | 67 | 276 | 10.0 | 24.0 | 0.00 | 0.00 | 0.00 | 40 | |
| 20260502102703 | 67 | 270 | 9.0 | 24.0 | 0.00 | 0.00 | 0.00 | 39 | |
| 20260502100903 | 66 | 267 | 7.0 | 18.0 | 0.00 | 0.00 | 0.00 | 42 | |
| 20260502090903 | 63 | 269 | 10.0 | 21.0 | 0.00 | 0.00 | 0.00 | 43 | |
| 20260502090217 | 63 | 268 | 12.0 | 24.0 | 0.00 | 0.00 | 0.00 | 43 | |
| 20260502070903 | 58 | 272 | 6.0 | 11.0 | 0.00 | 0.00 | 0.00 | 42 | |
| 20260502070003 | 57 | 276 | 7.0 | 14.0 | 0.00 | 0.00 | 0.00 | 43 | |
| 20260502065616 | 57 | 275 | 7.0 | 14.0 | 0.00 | 0.00 | 0.00 | 43 | |
| 20260502064503 | 56 | 262 | 6.0 | 13.0 | 0.00 | 0.00 | 0.00 | 46 | |
| 20260502063603 | 55 | 266 | 7.0 | 14.0 | 0.00 | 0.00 | 0.00 | 49 | |
| 20260502062703 | 54 | 274 | 6.0 | 17.0 | 0.00 | 0.00 | 0.00 | 51 | |
| 20260502061803 | 54 | 270 | 7.0 | 16.0 | 0.00 | 0.00 | 0.00 | 52 | |
| 20260502060903 | 53 | 269 | 8.0 | 14.0 | 0.00 | 0.00 | 0.00 | 53 | |
| 20260502060003 | 52 | 270 | 7.0 | 14.0 | 0.00 | 0.00 | 0.00 | 54 | |
| 20260502055403 | 52 | 266 | 7.0 | 16.0 | 0.00 | 0.00 | 0.00 | 56 | |
| 20260502054503 | 51 | 268 | 7.0 | 16.0 | 0.00 | 0.00 | 0.00 | 57 | |
| 20260502053603 | 50 | 271 | 6.0 | 15.0 | 0.00 | 0.00 | 0.00 | 60 | |
| 20260502052703 | 50 | 267 | 8.0 | 14.0 | 0.00 | 0.00 | 0.00 | 60 | |
| 20260502051803 | 49 | 272 | 8.0 | 14.0 | 0.00 | 0.00 | 0.00 | 61 | |
| 20260502051117 | 49 | 268 | 8.0 | 14.0 | 0.00 | 0.00 | 0.00 | 61 | |
| 20260502050003 | 48 | 274 | 6.0 | 14.0 | 0.00 | 0.00 | 0.00 | 62 | |
| 20260502045403 | 48 | 274 | 6.0 | 14.0 | 0.00 | 0.00 | 0.00 | 63 | |
| 20260502044503 | 48 | 269 | 6.0 | 12.0 | 0.00 | 0.00 | 0.00 | 63 | |
| 20260502043818 | 48 | 268 | 5.0 | 12.0 | 0.00 | 0.00 | 0.00 | 64 | |
| 20260502042703 | 48 | 272 | 5.0 | 13.0 | 0.00 | 0.00 | 0.00 | 64 | |
| 20260502041803 | 48 | 271 | 5.0 | 10.0 | 0.00 | 0.00 | 0.00 | 65 | |
| 20260502041116 | 48 | 269 | 5.0 | 11.0 | 0.00 | 0.00 | 0.00 | 63 | |
| 20260502040216 | 48 | 282 | 4.0 | 12.0 | 0.00 | 0.00 | 0.00 | 62 | |
| 20260502035403 | 48 | 278 | 3.0 | 9.0 | 0.00 | 0.00 | 0.00 | 63 | |
| 20260502034503 | 48 | 277 | 4.0 | 10.0 | 0.00 | 0.00 | 0.00 | 63 | |
| 20260502033818 | 48 | 266 | 3.0 | 10.0 | 0.00 | 0.00 | 0.00 | 63 | |
| 20260502032703 | 48 | 279 | 5.0 | 14.0 | 0.00 | 0.00 | 0.00 | 63 | |
| 20260502031803 | 48 | 275 | 4.0 | 11.0 | 0.00 | 0.00 | 0.00 | 63 | |
| 20260502030903 | 48 | 277 | 4.0 | 10.0 | 0.00 | 0.00 | 0.00 | 63 | |
| 20260502030003 | 48 | 270 | 4.0 | 11.0 | 0.00 | 0.00 | 0.00 | 64 | |
| 20260502025619 | 48 | 267 | 4.0 | 11.0 | 0.00 | 0.00 | 0.00 | 63 | |
| 20260502024503 | 48 | 266 | 5.0 | 11.0 | 0.00 | 0.00 | 0.00 | 63 | |
| 20260502023603 | 48 | 269 | 4.0 | 11.0 | 0.00 | 0.00 | 0.00 | 63 | |
| 20260502022703 | 48 | 270 | 5.0 | 11.0 | 0.00 | 0.00 | 0.00 | 62 | |
| 20260502021803 | 49 | 269 | 5.0 | 15.0 | 0.00 | 0.00 | 0.00 | 62 | |
| 20260502020903 | 49 | 269 | 5.0 | 15.0 | 0.00 | 0.00 | 0.00 | 61 | |
| 20260502020003 | 49 | 268 | 4.0 | 12.0 | 0.00 | 0.00 | 0.00 | 61 | |
| 20260502015403 | 49 | 269 | 6.0 | 12.0 | 0.00 | 0.00 | 0.00 | 61 | |
| 20260502014503 | 49 | 275 | 6.0 | 14.0 | 0.00 | 0.00 | 0.00 | 61 | |
| 20260502013603 | 49 | 281 | 4.0 | 13.0 | 0.00 | 0.00 | 0.00 | 62 | |
| 20260502012703 | 49 | 267 | 5.0 | 13.0 | 0.00 | 0.00 | 0.00 | 62 | |
| 20260502011803 | 50 | 265 | 6.0 | 13.0 | 0.00 | 0.00 | 0.00 | 61 | |
| 20260502010903 | 50 | 267 | 7.0 | 14.0 | 0.00 | 0.00 | 0.00 | 61 | |
| 20260502010003 | 50 | 267 | 6.0 | 12.0 | 0.00 | 0.00 | 0.00 | 60 | |
| 20260502005403 | 50 | 267 | 6.0 | 15.0 | 0.00 | 0.00 | 0.00 | 60 | |
| 20260502004503 | 50 | 270 | 6.0 | 16.0 | 0.00 | 0.00 | 0.00 | 59 | |
| 20260502003603 | 50 | 269 | 7.0 | 16.0 | 0.00 | 0.00 | 0.00 | 58 | |
| 20260502002703 | 50 | 273 | 6.0 | 13.0 | 0.00 | 0.00 | 0.00 | 57 | |
| 20260502001803 | 50 | 276 | 6.0 | 14.0 | 0.00 | 0.00 | 0.00 | 58 | |
| 20260502000903 | 50 | 274 | 7.0 | 14.0 | 0.00 | 0.00 | 0.00 | 58 | |
| 20260502000003 | 50 | 279 | 6.0 | 15.0 | 0.00 | 0.00 | 0.00 | 58 | |
| 20260501235403 | 50 | 274 | 6.0 | 15.0 | 0.00 | 0.00 | 0.00 | 58 | |
| 20260501234503 | 51 | 270 | 9.0 | 16.0 | 0.00 | 0.00 | 0.00 | 58 | |
| 20260501233603 | 51 | 266 | 8.0 | 16.0 | 0.00 | 0.00 | 0.00 | 58 | |
| 20260501232916 | 51 | 269 | 8.0 | 16.0 | 0.00 | 0.00 | 0.00 | 57 | |
| 20260501231803 | 52 | 273 | 7.0 | 15.0 | 0.00 | 0.00 | 0.00 | 56 | |
| 20260501230903 | 52 | 270 | 7.0 | 17.0 | 0.00 | 0.00 | 0.00 | 56 | |
| 20260501230218 | 52 | 271 | 7.0 | 15.0 | 0.00 | 0.00 | 0.00 | 55 | |
| 20260501225403 | 52 | 272 | 9.0 | 17.0 | 0.00 | 0.00 | 0.00 | 54 | |
| 20260501224503 | 52 | 269 | 9.0 | 17.0 | 0.00 | 0.00 | 0.00 | 54 | |
| 20260501223603 | 53 | 266 | 11.0 | 18.0 | 0.00 | 0.00 | 0.00 | 53 | |
| 20260501222703 | 53 | 267 | 9.0 | 17.0 | 0.00 | 0.00 | 0.00 | 52 | |
| 20260501221803 | 54 | 267 | 9.0 | 18.0 | 0.00 | 0.00 | 0.00 | 51 | |
| 20260501220903 | 54 | 268 | 7.0 | 19.0 | 0.00 | 0.00 | 0.00 | 50 | |
| 20260501215403 | 54 | 265 | 10.0 | 20.0 | 0.00 | 0.00 | 0.00 | 49 | |
| 20260501214503 | 55 | 266 | 10.0 | 20.0 | 0.00 | 0.00 | 0.00 | 48 | |
| 20260501213603 | 55 | 270 | 10.0 | 23.0 | 0.00 | 0.00 | 0.00 | 48 | |
| 20260501212703 | 55 | 267 | 10.0 | 22.0 | 0.00 | 0.00 | 0.00 | 48 | |
| 20260501211803 | 55 | 264 | 9.0 | 19.0 | 0.00 | 0.00 | 0.00 | 47 | |
| 20260501210903 | 55 | 267 | 10.0 | 20.0 | 0.00 | 0.00 | 0.00 | 47 | |
| 20260501210003 | 55 | 267 | 11.0 | 20.0 | 0.00 | 0.00 | 0.00 | 46 | |
| 20260501205403 | 56 | 268 | 11.0 | 18.0 | 0.00 | 0.00 | 0.00 | 47 | |
| 20260501204503 | 56 | 267 | 10.0 | 30.0 | 0.00 | 0.00 | 0.00 | 47 | |
| 20260501203603 | 56 | 271 | 10.0 | 22.0 | 0.00 | 0.00 | 0.00 | 46 | |
| 20260501202919 | 56 | 269 | 10.0 | 19.0 | 0.00 | 0.00 | 0.00 | 46 | |
| 20260501201803 | 56 | 267 | 8.0 | 17.0 | 0.00 | 0.00 | 0.00 | 46 | |
| 20260501200903 | 56 | 267 | 8.0 | 17.0 | 0.00 | 0.00 | 0.00 | 46 | |
| 20260501200003 | 57 | 265 | 9.0 | 18.0 | 0.00 | 0.00 | 0.00 | 45 | |
| 20260501195403 | 57 | 270 | 8.0 | 18.0 | 0.00 | 0.00 | 0.00 | 45 | |
| 20260501194503 | 57 | 272 | 9.0 | 16.0 | 0.00 | 0.00 | 0.00 | 45 | |
| 20260501193603 | 58 | 264 | 8.0 | 19.0 | 0.00 | 0.00 | 0.00 | 44 | |
| 20260501192703 | 58 | 269 | 7.0 | 13.0 | 0.00 | 0.00 | 0.00 | 45 | |
| 20260501192018 | 58 | 268 | 6.0 | 13.0 | 0.00 | 0.00 | 0.00 | 45 | |
| 20260501191117 | 58 | 267 | 6.0 | 12.0 | 0.00 | 0.00 | 0.00 | 44 |